Regional Weather Roundup
Issued by NWS Sioux Falls, SD

Home | Current Version | Previous Version | Graphics & Text | Print | Product List | Glossary On
Versions: 1 2 3 4 5 6 7 8 9 10 11 12 13 14 15 16 17 18 19 20 21 22 23 24 25 26 27 28 29 30 31 32 33 34 35 36 37 38 39 40 41 42 43 44 45 46 47 48 49 50
000
ASUS43 KFSD 190602
RWRFSD

WEATHER ROUNDUP FOR SE SOUTH DAKOTA/SW MINNESOTA/NW IOWA
NATIONAL WEATHER SERVICE SIOUX FALLS SD
1200 AM CST THU JAN 19 2017

NOTE: "FAIR" INDICATES FEW OR NO CLOUDS BELOW 12,000 FEET WITH NO
SIGNIFICANT WEATHER AND OR OBSTRUCTIONS TO VISIBILITY.


SDZ038>040-050-052>070-190700-
SOUTHEAST SOUTH DAKOTA

CITY           SKY/WX    TMP DP  RH WIND       PRES   REMARKS
BROOKINGS      CLEAR     34  33  96 S10       29.73F WCI  26
CHAMBERLAIN    CLOUDY    34  28  77 SE7       29.65F WCI  28
6HR MIN TEMP:  28; 6HR MAX TEMP:  41;

HURON          CLOUDY    32  31  96 S14       29.67F WCI  22
6HR MIN TEMP:  30; 6HR MAX TEMP:  36;

MADISON          N/A     32  32 100 S8          N/A  WCI  25
MITCHELL       CLEAR     33  32  96 SE12      29.71F WCI  24
6HR MIN TEMP:  33; 6HR MAX TEMP:  40;

SIOUX FALLS    CLEAR     38  37  97 SW6       29.77S
6HR MIN TEMP:  37; 6HR MAX TEMP:  42;

WINNER         FAIR      38  28  67 S8        29.64F
YANKTON        CLEAR     37  36  93 CALM      29.76F
$$

MNZ071-072-080-081-089-090-097-098-190700-
SOUTHWEST MINNESOTA

CITY           SKY/WX    TMP DP  RH WIND       PRES   REMARKS
FAIRMONT       CLEAR     34  33  96 S12       29.83F WCI  25
JACKSON        CLEAR     34  32  93 S13       29.81S WCI  25
LUVERNE        CLEAR     34  32  93 CALM      29.79S
MARSHALL       CLEAR     38  35  89 SW15      29.74F
6HR MIN TEMP:  37; 6HR MAX TEMP:  39;

MONTEVIDEO     FOG       28  28 100 S7        29.75F VSB 1/4 WCI  21
PIPESTONE      CLEAR     37  36  93 SW15      29.75S
REDWOOD FALLS  CLOUDY    35  32  88 S9        29.77S WCI  28
TRACY          CLEAR     40  37  89 SW21G29   29.75S
WINDOM           N/A     36  34  93 S13       29.79F
WORTHINGTON    CLEAR     38  34  85 S20       29.78F
$$

IAZ001>003-012>014-020>022-031-032-NEZ013-014-SDZ071-190700-
NORTHWEST IOWA

CITY           SKY/WX    TMP DP  RH WIND       PRES   REMARKS
CHEROKEE       CLEAR     35  34  97 S3        29.84S
DENISON        CLEAR     36  34  93 S8        29.85F
ESTHERVILLE    CLEAR     33  33 100 S13       29.82S WCI  24
LE MARS        CLEAR     37  34  87 S9        29.83S
ORANGE CITY    CLEAR     36  36 100 S9        29.81F
SHELDON        CLEAR     36  36 100 S10       29.79F
SIOUX CITY     CLEAR     38  35  89 SE12      29.83F
6HR MIN TEMP:  34; 6HR MAX TEMP:  43;

SPENCER        CLEAR     36  33  89 S9        29.82F
6HR MIN TEMP:  34; 6HR MAX TEMP:  38;

STORM LAKE     CLEAR     36  34  93 S14       29.84F
$$

ABBREVIATIONS USED IN REMARKS
   TC - TEMPERATURE IN CELSIUS
  WCI - WIND CHILL INDEX
   HX - HEAT INDEX
  VSB - VISIBILITY





USA.gov is the U.S. government's official web portal to all federal, state and local government web resources and services.